TimeCDT,TemperatureF,Dew PointF,Humidity,Sea Level PressureIn,VisibilityMPH,Wind Direction,Wind SpeedMPH,Gust SpeedMPH,PrecipitationIn,Events,Conditions,WindDirDegrees,DateUTC
12:15 AM,76.5,74.7,94,29.93,7.0,Calm,Calm,-,N/A,,Clear,0,2013-08-28 05:15:00
12:35 AM,75.9,74.5,95,29.94,10.0,Calm,Calm,-,N/A,,Clear,0,2013-08-28 05:35:00
12:55 AM,76.5,74.7,94,29.94,10.0,Calm,Calm,-,N/A,,Clear,0,2013-08-28 05:55:00
1:15 AM,76.5,74.7,94,29.94,10.0,Calm,Calm,-,N/A,,Clear,0,2013-08-28 06:15:00
1:35 AM,75.7,74.3,95,29.94,7.0,Calm,Calm,-,N/A,,Clear,0,2013-08-28 06:35:00
1:55 AM,75.2,73.8,95,29.94,7.0,Calm,Calm,-,N/A,,Clear,0,2013-08-28 06:55:00
2:15 AM,74.3,73.0,96,29.94,7.0,Calm,Calm,-,N/A,,Clear,0,2013-08-28 07:15:00
2:35 AM,73.9,72.9,96,29.94,5.0,Calm,Calm,-,N/A,,Clear,0,2013-08-28 07:35:00
2:55 AM,73.4,72.5,97,29.93,5.0,South,3.5,-,N/A,,Clear,170,2013-08-28 07:55:00
3:15 AM,73.8,72.9,97,29.94,7.0,Calm,Calm,-,N/A,,Clear,0,2013-08-28 08:15:00
3:35 AM,73.4,72.5,97,29.94,7.0,Calm,Calm,-,N/A,,Clear,0,2013-08-28 08:35:00
3:55 AM,72.9,72.0,97,29.94,7.0,Calm,Calm,-,N/A,,Clear,0,2013-08-28 08:55:00
4:15 AM,73.2,72.5,98,29.94,3.0,Calm,Calm,-,N/A,,Clear,0,2013-08-28 09:15:00
4:35 AM,72.3,71.6,98,29.94,10.0,Calm,Calm,-,N/A,,Clear,0,2013-08-28 09:35:00
4:55 AM,73.0,71.6,95,29.94,10.0,Calm,Calm,-,N/A,,Clear,0,2013-08-28 09:55:00
5:15 AM,72.7,70.7,93,29.94,10.0,Calm,Calm,-,N/A,,Clear,0,2013-08-28 10:15:00
5:35 AM,72.1,70.0,93,29.95,10.0,Calm,Calm,-,N/A,,Clear,0,2013-08-28 10:35:00
5:55 AM,71.6,70.0,95,29.95,7.0,Calm,Calm,-,N/A,,Clear,0,2013-08-28 10:55:00
6:15 AM,70.7,69.4,96,29.95,10.0,Calm,Calm,-,N/A,,Clear,0,2013-08-28 11:15:00
6:35 AM,71.1,68.9,93,29.95,10.0,South,3.5,-,N/A,,Clear,170,2013-08-28 11:35:00
6:55 AM,71.1,68.5,92,29.95,10.0,SSE,4.6,-,N/A,,Clear,160,2013-08-28 11:55:00
7:15 AM,70.5,68.2,92,29.95,10.0,SSW,3.5,-,N/A,,Clear,200,2013-08-28 12:15:00
7:35 AM,71.2,69.1,93,29.96,10.0,Calm,Calm,-,N/A,,Clear,0,2013-08-28 12:35:00
7:55 AM,73.0,70.2,91,29.96,10.0,South,4.6,-,N/A,,Clear,180,2013-08-28 12:55:00
8:15 AM,74.7,70.7,87,29.97,10.0,South,3.5,-,N/A,,Clear,180,2013-08-28 13:15:00
8:35 AM,76.1,70.3,82,29.98,10.0,SSW,3.5,-,N/A,,Clear,200,2013-08-28 13:35:00
8:55 AM,77.5,69.8,77,29.98,10.0,SSW,3.5,-,N/A,,Clear,200,2013-08-28 13:55:00
9:15 AM,79.2,69.6,72,29.98,10.0,South,3.5,-,N/A,,Clear,190,2013-08-28 14:15:00
9:35 AM,79.7,69.8,72,29.98,10.0,South,5.8,-,N/A,,Clear,190,2013-08-28 14:35:00
9:55 AM,80.6,69.3,68,29.99,10.0,SW,5.8,-,N/A,,Clear,220,2013-08-28 14:55:00
10:15 AM,81.9,69.4,66,29.99,10.0,Calm,Calm,-,N/A,,Clear,0,2013-08-28 15:15:00
10:35 AM,83.1,69.1,62,29.99,10.0,Calm,Calm,-,N/A,,Clear,0,2013-08-28 15:35:00
10:55 AM,84.2,68.9,60,29.99,10.0,SW,3.5,-,N/A,,Clear,230,2013-08-28 15:55:00
11:15 AM,85.5,68.5,57,29.99,10.0,SW,3.5,-,N/A,,Clear,220,2013-08-28 16:15:00
11:35 AM,86.7,68.5,55,29.99,7.0,Calm,Calm,-,N/A,,Clear,0,2013-08-28 16:35:00
11:55 AM,87.8,69.8,55,30.00,10.0,Calm,Calm,-,N/A,,Clear,0,2013-08-28 16:55:00
12:15 PM,88.2,70.9,56,29.98,10.0,SSW,8.1,-,N/A,,Clear,210,2013-08-28 17:15:00
12:35 PM,89.8,69.1,50,30.00,10.0,SW,4.6,-,N/A,,Clear,220,2013-08-28 17:35:00
12:55 PM,90.5,68.7,49,30.00,10.0,Calm,Calm,-,N/A,,Clear,0,2013-08-28 17:55:00
1:15 PM,91.6,71.2,51,29.99,10.0,SE,3.5,-,N/A,,Clear,130,2013-08-28 18:15:00
1:35 PM,92.3,70.3,49,29.99,10.0,Calm,Calm,-,N/A,,Clear,0,2013-08-28 18:35:00
1:55 PM,92.3,70.0,48,29.99,10.0,ESE,3.5,-,N/A,,Clear,120,2013-08-28 18:55:00
2:15 PM,93.0,71.2,49,29.99,10.0,ESE,3.5,-,N/A,,Clear,110,2013-08-28 19:15:00
2:35 PM,93.2,71.8,50,29.99,10.0,ESE,5.8,-,N/A,,Clear,110,2013-08-28 19:35:00
2:55 PM,93.7,72.7,50,29.98,10.0,South,8.1,-,N/A,,Clear,190,2013-08-28 19:55:00
3:15 PM,94.1,74.1,52,29.97,10.0,South,10.4,-,N/A,,Clear,180,2013-08-28 20:15:00
3:35 PM,94.1,73.4,51,29.97,1.0,SSW,9.2,-,N/A,,Haze,200,2013-08-28 20:35:00
3:55 PM,94.3,71.4,47,29.97,10.0,SSW,8.1,-,N/A,,Clear,200,2013-08-28 20:55:00
4:15 PM,95.2,71.1,45,29.97,10.0,SW,5.8,-,N/A,,Clear,220,2013-08-28 21:15:00
4:35 PM,95.2,70.2,44,29.97,10.0,South,8.1,-,N/A,,Clear,190,2013-08-28 21:35:00
4:55 PM,94.6,68.2,42,29.97,10.0,SW,9.2,-,N/A,,Clear,230,2013-08-28 21:55:00
5:15 PM,94.5,68.4,42,29.97,10.0,SSW,5.8,-,N/A,,Clear,210,2013-08-28 22:15:00
5:35 PM,94.5,68.9,43,29.96,10.0,SSW,8.1,-,N/A,,Clear,200,2013-08-28 22:35:00
5:55 PM,93.4,70.0,46,29.96,10.0,South,10.4,-,N/A,,Clear,190,2013-08-28 22:55:00
6:15 PM,92.8,68.5,45,29.96,10.0,South,9.2,-,N/A,,Clear,190,2013-08-28 23:15:00
6:35 PM,92.1,68.5,46,29.96,10.0,South,6.9,-,N/A,,Clear,190,2013-08-28 23:35:00
6:55 PM,90.7,69.4,50,29.96,10.0,SSW,5.8,-,N/A,,Clear,200,2013-08-28 23:55:00
7:15 PM,89.1,70.9,55,29.97,10.0,Calm,Calm,-,N/A,,Clear,0,2013-08-29 00:15:00
7:35 PM,89.1,69.3,52,29.97,10.0,Calm,Calm,-,N/A,,Clear,0,2013-08-29 00:35:00
7:55 PM,85.6,71.1,62,29.97,10.0,South,3.5,-,N/A,,Clear,190,2013-08-29 00:55:00
8:15 PM,83.8,71.6,66,29.98,10.0,Calm,Calm,-,N/A,,Clear,0,2013-08-29 01:15:00
8:35 PM,80.2,72.9,78,29.98,10.0,Calm,Calm,-,N/A,,Clear,0,2013-08-29 01:35:00
8:55 PM,80.8,73.0,77,29.99,10.0,Calm,Calm,-,N/A,,Clear,0,2013-08-29 01:55:00
9:15 PM,79.9,73.0,80,29.99,10.0,SSE,3.5,-,N/A,,Clear,160,2013-08-29 02:15:00
9:35 PM,78.8,73.4,83,30.00,10.0,Calm,Calm,-,N/A,,Clear,0,2013-08-29 02:35:00
9:55 PM,78.4,73.8,85,29.99,10.0,South,5.8,-,N/A,,Clear,170,2013-08-29 02:55:00
10:15 PM,78.6,73.4,84,30.00,10.0,Calm,Calm,-,N/A,,Clear,0,2013-08-29 03:15:00
10:35 PM,78.4,73.2,84,30.01,10.0,Calm,Calm,-,N/A,,Clear,0,2013-08-29 03:35:00
10:55 PM,77.9,71.1,79,30.00,10.0,South,6.9,-,N/A,,Clear,170,2013-08-29 03:55:00
11:15 PM,76.3,70.2,81,30.01,10.0,Calm,Calm,-,N/A,,Clear,0,2013-08-29 04:15:00
11:35 PM,76.1,69.3,79,30.01,10.0,Calm,Calm,-,N/A,,Clear,0,2013-08-29 04:35:00
11:55 PM,75.2,68.9,81,30.01,10.0,SSE,4.6,-,N/A,,Clear,160,2013-08-29 04:55:00